Weather History for DeKalb, IL

Change the Weather History Date:

Thursday, December 6, 2012

  Actual Average (KARR) Record (KARR)
Temperature  
Mean Temperature 38 °F 28 °F  
Max Temperature 46 °F 36 °F 59 °F (1998)
Min Temperature 31 °F 20 °F -10 °F (2007)
Degree Days  
Heating Degree Days 26 37  
Month to date heating degree days 216  
Since 1 July heating degree days 1630  
Cooling Degree Days 0 0  
Month to date cooling degree days 0  
Year to date cooling degree days 655  
Moisture  
Dew Point 35 °F    
Average Humidity 81    
Maximum Humidity 89    
Minimum Humidity 69    
Precipitation  
Precipitation 0.00 in 0.09 in 1.06 in (1998)
Month to date precipitation 0.55  
Year to date precipitation 35.45  
Sea Level Pressure  
Sea Level Pressure 30.01 in    
Wind  
Wind Speed 10 mph (South)    
Max Wind Speed 17 mph    
Max Gust Speed -    
Visibility 10 miles    
Events Rain    
T = Trace of Precipitation, MM = Missing Value Source: NWS Daily Summary

Daily Weather History Graph

Daily Weather History Graph

Search for Another Location

Airport:

Trip Planner

Search our weather history database for the weather conditions in past years. The results will help you decide how hot, cold, wet, or windy it might be!

Date:

Astronomy

Dec. 06, 2012 Rise Set
Actual Time 7:08 AM CST 4:23 PM CST
Civil Twilight 6:37 AM CST 4:54 PM CST
Nautical Twilight 6:02 AM CST 5:29 PM CST
Astronomical Twilight 5:28 AM CST 6:03 PM CST
Moon No Moon Rise 11:55 AM CST (12/6)
Length of Visible Light 10h 17m
Length of Day
9h 14m
Waning Gibbous, 49% of the Moon is Illuminated
Dec 6
Waning Gibbous
Dec 13
New
Dec 19
First Quarter
Dec 28
Full
Jan 4
Last Quarter

Hourly Weather History & Observations

Time (CST) Temp. Windchill Dew Point Humidity Pressure Visibility Wind Dir Wind Speed Gust Speed Precip Events Conditions
12:15 AM 31.8 °F 25.4 °F 28.2 °F 87% 30.19 in 10.0 mi SE 6.9 mph - N/A   Clear
12:35 AM 32.0 °F 24.8 °F 28.4 °F 87% 30.18 in 10.0 mi SE 8.1 mph - N/A   Clear
12:55 AM 32.5 °F 27.1 °F 29.1 °F 87% 30.18 in 10.0 mi SE 5.8 mph - N/A   Scattered Clouds
1:15 AM 32.9 °F 25.9 °F 29.3 °F 87% 30.17 in 10.0 mi SE 8.1 mph - N/A   Scattered Clouds
1:35 AM 33.1 °F 24.9 °F 29.3 °F 86% 30.17 in 10.0 mi SE 10.4 mph - N/A   Scattered Clouds
1:55 AM 33.1 °F 26.1 °F 29.3 °F 86% 30.17 in 10.0 mi SE 8.1 mph - N/A   Mostly Cloudy
2:15 AM 33.1 °F 24.9 °F 29.3 °F 86% 30.17 in 10.0 mi SE 10.4 mph - N/A   Mostly Cloudy
2:35 AM 32.9 °F 24.7 °F 29.3 °F 87% 30.16 in 10.0 mi SE 10.4 mph - N/A   Scattered Clouds
2:55 AM 32.9 °F 25.3 °F 29.5 °F 87% 30.15 in 10.0 mi SE 9.2 mph - N/A   Scattered Clouds
3:15 AM 33.1 °F 24.4 °F 29.7 °F 87% 30.14 in 10.0 mi SE 11.5 mph - N/A   Scattered Clouds
3:35 AM 32.9 °F 24.7 °F 29.7 °F 88% 30.14 in 10.0 mi SE 10.4 mph - N/A   Clear
3:55 AM 32.9 °F 24.1 °F 29.8 °F 88% 30.13 in 10.0 mi SE 11.5 mph - N/A   Clear
4:15 AM 32.9 °F 24.1 °F 29.8 °F 88% 30.13 in 10.0 mi SE 11.5 mph - N/A   Clear
4:35 AM 32.9 °F 24.1 °F 29.8 °F 88% 30.12 in 10.0 mi SE 11.5 mph - N/A   Clear
4:55 AM 32.9 °F 23.7 °F 29.8 °F 88% 30.12 in 10.0 mi SSE 12.7 mph - N/A   Clear
5:15 AM 33.1 °F 23.4 °F 30.0 °F 89% 30.11 in 10.0 mi SE 13.8 mph - N/A   Clear
5:35 AM 33.1 °F 23.9 °F 30.0 °F 89% 30.11 in 10.0 mi SE 12.7 mph - N/A   Clear
7:35 AM 34.0 °F 26.0 °F 30.9 °F 89% 30.08 in 10.0 mi SSE 10.4 mph - N/A   Scattered Clouds
7:55 AM 34.2 °F 25.7 °F 30.9 °F 88% 30.08 in 10.0 mi SSE 11.5 mph - N/A   Clear
8:15 AM 34.7 °F 25.9 °F 31.3 °F 87% 30.09 in 10.0 mi South 12.7 mph - N/A   Clear
8:35 AM 35.1 °F 25.9 °F 31.5 °F 87% 30.07 in 10.0 mi SSE 13.8 mph - N/A   Clear
8:55 AM 35.4 °F 26.8 °F 31.6 °F 86% 30.07 in 10.0 mi SSE 12.7 mph - N/A   Clear
9:15 AM 35.8 °F 26.1 °F 32.0 °F 86% 30.07 in 10.0 mi SSE 16.1 mph - N/A   Clear
9:35 AM 36.5 °F 28.2 °F 32.0 °F 84% 30.07 in 10.0 mi SSE 12.7 mph - N/A   Clear
9:55 AM 37.6 °F 29.1 °F 32.9 °F 83% 30.07 in 10.0 mi SSE 13.8 mph - N/A   Clear
10:15 AM 37.6 °F 28.8 °F 32.9 °F 83% 30.05 in 10.0 mi SSE 15.0 mph - N/A   Clear
10:35 AM 38.1 °F 29.5 °F 33.3 °F 83% 30.04 in 10.0 mi South 15.0 mph - N/A   Clear
10:55 AM 39.4 °F 30.4 °F 34.0 °F 81% 30.02 in 10.0 mi SSE 17.3 mph - N/A   Clear
11:15 AM 40.1 °F 31.6 °F 34.7 °F 81% 30.01 in 10.0 mi South 16.1 mph - N/A   Clear
11:35 AM 40.8 °F 33.3 °F 35.1 °F 80% 30.01 in 10.0 mi South 13.8 mph - N/A   Clear
11:55 AM 42.1 °F 34.9 °F 35.8 °F 78% 29.99 in 10.0 mi South 13.8 mph - N/A   Clear
12:15 PM 43.2 °F 36.6 °F 36.3 °F 77% 29.98 in 10.0 mi South 12.7 mph - N/A   Scattered Clouds
12:35 PM 44.2 °F 37.6 °F 36.7 °F 75% 29.96 in 10.0 mi South 13.8 mph - N/A   Clear
12:55 PM 44.8 °F 38.0 °F 36.7 °F 73% 29.95 in 10.0 mi South 15.0 mph - N/A   Clear
1:15 PM 45.1 °F 38.1 °F 36.7 °F 72% 29.93 in 10.0 mi SSE 16.1 mph - N/A   Clear
1:35 PM 44.8 °F 38.3 °F 36.5 °F 73% 29.93 in 10.0 mi South 13.8 mph - N/A   Clear
1:55 PM 45.0 °F 38.9 °F 36.5 °F 72% 29.93 in 10.0 mi South 12.7 mph - N/A   Clear
2:15 PM 46.0 °F 39.6 °F 36.5 °F 69% 29.94 in 10.0 mi South 15.0 mph - N/A   Clear
2:35 PM 45.5 °F 39.9 °F 36.5 °F 71% 29.94 in 10.0 mi South 11.5 mph - N/A   Clear
2:55 PM 45.0 °F 38.9 °F 36.7 °F 73% 29.93 in 10.0 mi South 12.7 mph - N/A   Clear
3:15 PM 45.0 °F 38.9 °F 36.9 °F 73% 29.92 in 10.0 mi South 12.7 mph - N/A   Scattered Clouds
3:35 PM 45.1 °F 39.5 °F 37.2 °F 74% 29.91 in 10.0 mi South 11.5 mph - N/A   Scattered Clouds
3:55 PM 45.0 °F 39.3 °F 37.4 °F 75% 29.91 in 10.0 mi SSE 11.5 mph - N/A   Scattered Clouds
4:15 PM 44.8 °F 39.4 °F 37.4 °F 75% 29.91 in 10.0 mi SSE 10.4 mph - N/A   Mostly Cloudy
4:35 PM 44.6 °F 39.7 °F 37.6 °F 76% 29.91 in 10.0 mi SSE 9.2 mph - N/A   Overcast
4:55 PM 44.6 °F 39.2 °F 37.6 °F 76% 29.91 in 10.0 mi SSE 10.4 mph - N/A   Overcast
5:15 PM 43.7 °F 38.1 °F 37.8 °F 80% 29.90 in 10.0 mi SSE 10.4 mph - N/A   Overcast
5:35 PM 43.7 °F 38.6 °F 37.8 °F 80% 29.91 in 10.0 mi South 9.2 mph - N/A   Scattered Clouds
5:55 PM 43.3 °F 36.8 °F 37.8 °F 81% 29.89 in 10.0 mi SSE 12.7 mph - N/A   Scattered Clouds
6:15 PM 43.7 °F 36.6 °F 38.1 °F 81% 29.89 in 10.0 mi South 15.0 mph - N/A   Mostly Cloudy
6:35 PM 43.9 °F 38.8 °F 38.3 °F 81% 29.89 in 10.0 mi South 9.2 mph - N/A   Overcast
6:55 PM 44.2 °F 39.2 °F 38.8 °F 81% 29.90 in 10.0 mi South 9.2 mph - N/A   Mostly Cloudy
7:15 PM 44.1 °F 40.1 °F 38.8 °F 82% 29.92 in 10.0 mi West 6.9 mph - N/A   Scattered Clouds
7:35 PM 45.1 °F 43.7 °F 39.2 °F 80% 29.92 in 10.0 mi SW 3.5 mph - N/A   Mostly Cloudy
7:55 PM 45.5 °F 43.2 °F 39.2 °F 79% 29.92 in 10.0 mi SW 4.6 mph - N/A   Overcast
8:35 PM 46.4 °F 43.5 °F 39.4 °F 77% 29.92 in 10.0 mi SW 5.8 mph - N/A   Overcast
8:55 PM 46.4 °F 43.5 °F 39.6 °F 77% 29.92 in 10.0 mi SW 5.8 mph - N/A   Overcast
9:15 PM 45.9 °F 43.6 °F 39.6 °F 79% 29.92 in 10.0 mi SW 4.6 mph - N/A   Overcast
9:35 PM 45.7 °F 42.7 °F 39.4 °F 79% 29.92 in 10.0 mi SW 5.8 mph - N/A   Overcast
9:55 PM 45.0 °F 41.8 °F 39.4 °F 81% 29.92 in 10.0 mi SSW 5.8 mph - N/A   Overcast
10:15 PM 44.6 °F 40.7 °F 39.2 °F 81% 29.92 in 10.0 mi South 6.9 mph - N/A   Overcast
10:35 PM 44.6 °F 41.4 °F 39.7 °F 83% 29.91 in 10.0 mi SSW 5.8 mph - N/A   Overcast
10:55 PM 44.8 °F 41.6 °F 39.6 °F 82% 29.92 in 10.0 mi SSW 5.8 mph - N/A   Overcast
11:15 PM 44.8 °F 41.0 °F 40.1 °F 84% 29.92 in 10.0 mi SW 6.9 mph - N/A   Light Drizzle
11:35 PM 45.1 °F 41.4 °F 39.9 °F 82% 29.92 in 10.0 mi SW 6.9 mph - N/A   Mostly Cloudy
11:55 PM 45.1 °F 42.0 °F 39.6 °F 81% 29.93 in 10.0 mi WSW 5.8 mph - N/A Rain Light Rain